Orbital Elements at Epoch 2459200.5 (2020-Dec-17.0) TDB
Reference: JPL 19 (heliocentric ecliptic J2000)
Element | Value | Uncertainty (1-sigma) | Units |
e | .1499187884271122 | 3.6432e-08 | |
a | 2.345295729797726 | 9.2259e-09 | au |
q | 1.993691835483171 | 8.4556e-08 | au |
i | 2.074299440857531 | 4.1653e-06 | deg |
node | 353.4497851449541 | 0.00010351 | deg |
peri | 187.6203711372925 | 0.00010429 | deg |
M | 133.9215311130932 | 1.3843e-05 | deg |
tp | 2458712.474234599405 (2019-Aug-16.97423460) | 4.9287e-05 | TDB |
period | 1311.88222001322 3.59 | 7.741e-06 2.119e-08 | d yr |
n | .2744148784914338 | 1.6192e-09 | deg/d |
Q | 2.696899624112281 | 1.0609e-08 | au |
|
| | Orbit Determination Parameters
Additional Information
|